Weather History for Birmingham, United Kingdom

Change the Weather History Date:

Tuesday, November 5, 2013

  Actual Average Record
Temperature  
Mean Temperature 45 °F -  
Max Temperature 51 °F 48 °F 59 °F (2003)
Min Temperature 39 °F 36 °F 30 °F (2012)
Degree Days  
Heating Degree Days 20    
Moisture  
Dew Point 41 °F    
Average Humidity 85    
Maximum Humidity 100    
Minimum Humidity 66    
Precipitation  
Precipitation 0.00 in 0.08 in - ()
Sea Level Pressure  
Sea Level Pressure 29.32 in    
Wind  
Wind Speed 9 mph ()    
Max Wind Speed 20 mph    
Max Gust Speed 31 mph    
Visibility 5.9 miles    
Events Rain    
Averages and records for this station are not official NWS values.
T = Trace of Precipitation, MM = Missing Value Source: Averaged Metar Reports

Daily Weather History Graph

Daily Weather History Graph

Search for Another Location

Airport:

Trip Planner

Search our weather history database for the weather conditions in past years. The results will help you decide how hot, cold, wet, or windy it might be!

Date:

Astronomy

Nov. 05, 2013 Rise Set
Actual Time 7:10 AM GMT 4:29 PM GMT
Civil Twilight 6:34 AM GMT 5:06 PM GMT
Nautical Twilight 5:53 AM GMT 5:47 PM GMT
Astronomical Twilight 5:13 AM GMT 6:26 PM GMT
Moon 9:21 AM GMT (11/5) 6:04 PM GMT (11/5)
Length of Visible Light 10h 32m
Length of Day
9h 19m
Waxing Crescent, 5% of the Moon is Illuminated
Nov 5
Waxing Crescent
Nov 10
First Quarter
Nov 17
Full
Nov 25
Last Quarter
Dec 3
New

Hourly Weather History & Observations

Time (GMT) Temp. Windchill Dew Point Humidity Pressure Visibility Wind Dir Wind Speed Gust Speed Precip Events Conditions
12:20 AM 41.0 °F 35.8 °F 35.6 °F 81% 29.42 in - SSW 8.1 mph - N/A   Clear
12:50 AM 39.2 °F 34.2 °F 35.6 °F 87% 29.39 in - SSW 6.9 mph - N/A   Clear
1:20 AM 39.2 °F 35.0 °F 35.6 °F 87% 29.39 in - South 5.8 mph - N/A   Clear
1:50 AM 39.2 °F 33.6 °F 35.6 °F 87% 29.36 in 6.2 mi South 8.1 mph - N/A   Scattered Clouds
2:20 AM 39.2 °F 35.0 °F 35.6 °F 87% 29.36 in 6.2 mi South 5.8 mph - N/A   Overcast
2:50 AM 39.2 °F 34.2 °F 37.4 °F 93% 29.33 in 6.2 mi SSE 6.9 mph - N/A   Overcast
3:20 AM 39.2 °F 35.0 °F 37.4 °F 93% 29.33 in 6.2 mi SSE 5.8 mph - N/A Rain Light Rain
3:50 AM 39.2 °F 34.2 °F 37.4 °F 93% 29.30 in 6.2 mi SSE 6.9 mph - N/A Rain Light Rain
4:20 AM 39.2 °F 33.6 °F 39.2 °F 100% 29.30 in 6.2 mi SSE 8.1 mph - N/A Rain Light Rain
4:50 AM 41.0 °F 36.4 °F 39.2 °F 93% 29.27 in 6.2 mi SSE 6.9 mph - N/A Rain Light Rain
5:20 AM 41.0 °F 35.8 °F 41.0 °F 100% 29.27 in 6.2 mi South 8.1 mph - N/A   Overcast
5:50 AM 41.0 °F 35.8 °F 41.0 °F 100% 29.24 in 4.3 mi South 8.1 mph - N/A   Overcast
6:20 AM 42.8 °F 38.6 °F 42.8 °F 100% 29.24 in - South 6.9 mph - N/A   Overcast
6:50 AM 42.8 °F 38.6 °F 42.8 °F 100% 29.24 in 1.9 mi South 6.9 mph - N/A   Overcast
7:20 AM 44.6 °F 39.7 °F 42.8 °F 93% 29.21 in 4.3 mi SSW 9.2 mph - N/A   Mostly Cloudy
7:50 AM 44.6 °F 39.2 °F 44.6 °F 100% 29.21 in 5.6 mi South 10.4 mph - N/A Rain Light Rain
8:20 AM 46.4 °F 42.9 °F 44.6 °F 93% 29.21 in 5.6 mi South 6.9 mph - N/A Rain Light Rain
8:50 AM 46.4 °F 42.4 °F 46.4 °F 100% 29.18 in 6.2 mi South 8.1 mph - N/A   Scattered Clouds
9:20 AM 48.2 °F - 46.4 °F 93% 29.18 in 6.2 mi SSW 12.7 mph - N/A   Mostly Cloudy
9:50 AM 48.2 °F - 46.4 °F 93% 29.18 in 6.2 mi SSW 11.5 mph - N/A   Mostly Cloudy
10:20 AM 50.0 °F - 48.2 °F 94% 29.21 in 6.2 mi SW 11.5 mph - N/A Rain Light Rain
10:50 AM 50.0 °F - 48.2 °F 94% 29.21 in 6.2 mi WSW 11.5 mph - N/A   Mostly Cloudy
11:20 AM 51.8 °F - 46.4 °F 82% 29.21 in 6.2 mi West 12.7 mph - N/A   Mostly Cloudy
11:50 AM 51.8 °F - 46.4 °F 82% 29.21 in 6.2 mi West 17.3 mph - N/A   Mostly Cloudy
12:20 PM 51.8 °F - 44.6 °F 76% 29.24 in 6.2 mi West 17.3 mph - N/A Rain Light Rain
12:50 PM 50.0 °F - 44.6 °F 82% 29.24 in 6.2 mi WNW 19.6 mph - N/A   Mostly Cloudy
1:20 PM 50.0 °F - 42.8 °F 76% 29.27 in 6.2 mi West 19.6 mph - N/A   Mostly Cloudy
1:50 PM 50.0 °F - 41.0 °F 71% 29.27 in 6.2 mi WNW 19.6 mph 31.1 mph N/A   Scattered Clouds
2:20 PM 50.0 °F - 39.2 °F 66% 29.30 in 6.2 mi WNW 17.3 mph - N/A   Partly Cloudy
2:50 PM 50.0 °F - 39.2 °F 66% 29.30 in 6.2 mi West 16.1 mph - N/A   Partly Cloudy
3:20 PM 50.0 °F - 41.0 °F 71% 29.30 in 6.2 mi West 15.0 mph - N/A   Partly Cloudy
3:50 PM 50.0 °F - 41.0 °F 71% 29.33 in 6.2 mi West 13.8 mph - N/A   Partly Cloudy
4:20 PM 50.0 °F - 41.0 °F 71% 29.33 in 6.2 mi West 11.5 mph - N/A   Partly Cloudy
4:50 PM 48.2 °F - 42.8 °F 82% 29.33 in 6.2 mi West 12.7 mph - N/A   Partly Cloudy
5:20 PM 48.2 °F - 41.0 °F 76% 29.36 in 6.2 mi West 13.8 mph - N/A   Partly Cloudy
5:50 PM 48.2 °F - 41.0 °F 76% 29.36 in - West 12.7 mph - N/A   Clear
6:20 PM 46.4 °F 41.1 °F 41.0 °F 81% 29.39 in - West 11.5 mph - N/A   Clear
6:50 PM 46.4 °F 41.5 °F 41.0 °F 81% 29.39 in - West 10.4 mph - N/A   Clear
7:20 PM 46.4 °F 42.4 °F 41.0 °F 81% 29.39 in - WSW 8.1 mph - N/A   Clear
7:50 PM 46.4 °F 42.4 °F 41.0 °F 81% 29.42 in - WSW 8.1 mph - N/A   Clear
8:20 PM 46.4 °F 41.5 °F 41.0 °F 81% 29.42 in - WSW 10.4 mph - N/A   Clear
8:50 PM 46.4 °F 41.5 °F 41.0 °F 81% 29.42 in - West 10.4 mph - N/A   Clear
9:20 PM 46.4 °F 41.5 °F 41.0 °F 81% 29.44 in - West 10.4 mph - N/A   Clear
9:50 PM 46.4 °F 41.5 °F 41.0 °F 81% 29.44 in - WSW 10.4 mph - N/A   Clear
10:20 PM 46.4 °F 41.9 °F 41.0 °F 81% 29.44 in - SW 9.2 mph - N/A   Clear
10:50 PM 46.4 °F 41.9 °F 41.0 °F 81% 29.44 in - SW 9.2 mph - N/A   Clear
11:20 PM 46.4 °F 41.5 °F 41.0 °F 81% 29.44 in - SW 10.4 mph - N/A   Clear
11:50 PM 46.4 °F 41.9 °F 41.0 °F 81% 29.44 in - SW 9.2 mph - N/A   Clear